Temp
11 11 11 11 11 11 11 11 12 12 12 12 13 14 14 14 14 14 13 14 14 14 14 14 15 15 14 13 13 13 13 12 12 12 12 12 12 12 13 13 13 13 13 13 13
10 10 11 11 11 11 11 11 11 12 12 12 13 13 14 14 14 14 14 14 14 14 14 14 14 14 14 13 13 13 13 13 14 13 12 13 12 13 13 13 14 14 14 13 13
10 10 10 10 11 11 11 11 11 11 12 12 12 13 13 13 13 14 14 14 14 14 14 14 14 14 14 14 13 14 14 14 13 13 13 13 13 13 13 14 14 15 15 14 14
10 10 10 10 10 11 11 11 11 11 11 12 12 12 13 13 13 13 13 14 14 14 14 14 15 14 14 14 13 14 14 14 14 14 13 14 15 14 13 14 14 14 14 14 14
9 9 9 10 10 10 11 11 11 12 11 11 12 12 12 12 12 12 13 13 14 14 13 14 15 13 14 14 14 15 14 14 14 14 14 13 14 14 13 13 13 14 14 14 14
9 9 10 10 10 10 11 11 11 12 11 11 11 12 12 12 12 12 12 12 13 14 13 14 14 13 13 13 13 14 15 15 14 15 14 14 14 14 14 13 13 13 14 13 13
9 9 10 10 10 10 10 10 10 11 11 11 11 11 11 11 12 12 12 12 13 13 13 13 12 12 13 14 13 14 15 15 15 15 15 14 13 14 14 14 14 13 13 13 13
9 9 10 10 10 10 10 10 10 10 11 11 10 11 10 11 11 11 11 12 12 13 13 12 11 12 13 14 14 14 15 15 16 15 15 15 14 14 14 14 14 14 13 13 13
9 9 9 10 10 10 10 9 10 10 10 10 10 10 10 10 10 11 11 11 12 12 12 11 11 12 13 13 14 14 15 15 15 15 16 15 15 14 15 14 14 14 13 13 13
8 8 9 9 9 9 9 9 9 9 10 10 10 10 10 9 10 10 11 10 11 12 11 11 11 12 13 13 14 14 14 15 15 15 15 15 15 15 15 14 14 14 14 13 13
8 8 9 9 9 9 9 9 9 9 9 10 10 10 9 10 10 9 10 10 10 11 10 10 11 12 13 14 13 14 14 15 15 16 14 15 15 15 15 14 14 14 14 14 14
8 8 8 8 9 8 8 8 9 9 9 10 9 9 10 10 10 9 9 9 9 10 10 10 11 12 12 13 12 14 14 15 16 16 16 16 15 15 16 16 14 14 14 15 13
8 8 8 8 8 8 8 8 8 9 10 10 9 9 9 10 10 10 10 9 9 9 9 9 11 11 12 12 13 13 14 14 15 15 15 15 13 13 14 14 14 14 14 14 14
8 8 7 8 8 8 7 8 9 9 9 10 10 9 10 10 10 10 10 10 9 9 9 9 10 11 11 12 12 13 14 14 15 14 14 14 12 12 13 13 13 14 14 14 15
7 7 7 7 7 7 7 8 8 8 6 10 9 10 10 10 10 10 10 10 9 9 9 10 11 11 11 12 12 13 13 14 14 14 15 15 14 14 13 12 14 15 14 15 15
7 7 7 7 7 7 7 7 8 8 8 9 9 10 10 10 10 10 10 10 10 10 10 10 10 11 11 12 12 12 13 13 13 14 12 15 15 14 14 15 16 15 15 15 15
7 7 7 7 7 7 7 7 8 8 8 9 9 9 10 10 10 10 10 10 10 10 10 10 10 11 11 12 12 12 13 13 12 11 10 16 15 16 16 16 16 17 16 15 15
6 6 6 7 7 7 7 7 7 8 8 9 9 9 9 9 10 10 10 10 10 10 10 10 11 11 12 12 12 13 13 13 10 8 12 15 13 16 16 17 16 16 16 15 15
6 6 6 7 7 7 7 7 7 7 8 8 9 8 9 9 10 10 10 10 10 10 10 10 10 11 11 12 12 13 13 14 14 12 13 14 16 16 17 17 17 17 17 16 15
6 6 5 5 6 6 6 6 6 7 7 7 8 8 8 9 9 9 9 8 9 9 10 10 10 11 11 12 12 13 13 13 13 9 11 13 15 17 17 18 18 18 18 17 17
5 5 5 6 6 6 6 6 6 6 7 7 7 7 7 8 8 8 8 8 8 9 9 10 10 11 11 11 11 12 12 13 13 14 8 9 15 16 17 18 18 18 18 18 17
5 5 5 5 5 5 5 6 6 6 6 6 7 7 7 7 7 7 7 7 7 8 9 9 9 10 10 10 11 11 10 12 13 12 13 13 14 16 17 17 18 18 18 18 17
5 4 4 4 5 5 5 5 6 6 6 6 6 6 5 6 6 6 6 6 6 7 8 8 8 9 10 10 10 10 9 10 12 13 14 12 14 15 16 16 17 16 17 17 17
4 4 4 4 4 4 5 5 5 5 5 5 5 5 5 5 5 5 5 5 6 6 7 7 8 8 8 8 8 9 10 10 11 12 13 14 14 14 14 14 15 15 16 16 16
3 4 4 4 4 4 4 5 5 4 4 4 4 5 4 4 4 5 4 5 5 5 6 7 7 7 7 7 8 8 9 10 10 11 12 14 14 14 14 13 14 15 16 16 15
3 3 3 4 4 4 4 4 4 4 3 3 3 3 3 3 3 4 4 4 4 4 5 5 6 6 7 7 8 8 8 9 10 11 13 13 14 14 14 13 13 14 15 15 15
3 3 3 3 3 4 4 3 3 3 3 3 3 2 2 2 2 3 3 3 3 4 4 4 5 5 6 6 7 7 8 9 10 10 12 13 13 14 13 12 12 13 14 14 14
Height
3151 3149 3148 3146 3144 3142 3141 3141 3139 3138 3137 3138 3139 3139 3140 3142 3144 3147 3148 3151 3152 3153 3155 3155 3158 3159 3161 3161 3160 3160 3163 3165 3166 3166 3167 3168 3170 3171 3173 3174 3173 3174 3175 3177 3176
3149 3147 3145 3143 3141 3139 3137 3136 3136 3135 3135 3135 3136 3136 3137 3139 3141 3143 3147 3148 3150 3151 3154 3155 3157 3159 3161 3161 3161 3161 3162 3164 3166 3166 3167 3169 3171 3171 3173 3173 3174 3175 3176 3177 3178
3146 3144 3142 3140 3139 3137 3135 3133 3131 3132 3132 3132 3132 3134 3134 3135 3138 3139 3143 3146 3148 3149 3151 3153 3154 3158 3160 3161 3161 3161 3162 3164 3165 3167 3168 3170 3171 3172 3173 3174 3174 3176 3176 3178 3179
3143 3142 3139 3137 3136 3134 3132 3130 3128 3128 3128 3129 3129 3130 3132 3133 3137 3136 3140 3143 3146 3148 3150 3152 3153 3157 3160 3161 3160 3162 3163 3166 3168 3168 3168 3169 3171 3171 3174 3177 3177 3177 3178 3179 3180
3142 3139 3137 3135 3133 3131 3130 3128 3126 3125 3125 3125 3126 3128 3129 3131 3132 3134 3137 3140 3143 3146 3148 3151 3153 3157 3159 3160 3160 3161 3164 3165 3168 3169 3170 3170 3170 3173 3173 3176 3177 3177 3178 3180 3181
3141 3138 3135 3133 3131 3129 3126 3125 3124 3122 3122 3122 3123 3125 3126 3129 3129 3131 3134 3138 3141 3144 3146 3149 3153 3156 3158 3158 3159 3159 3161 3163 3165 3167 3169 3170 3171 3172 3173 3174 3177 3177 3179 3180 3182
3140 3138 3135 3132 3129 3126 3123 3122 3121 3120 3120 3119 3120 3122 3123 3125 3126 3128 3132 3135 3138 3141 3145 3149 3152 3154 3155 3157 3158 3159 3161 3162 3163 3166 3166 3169 3172 3167 3172 3173 3175 3176 3177 3180 3181
3137 3135 3133 3130 3127 3124 3121 3119 3118 3118 3117 3117 3119 3119 3121 3123 3126 3129 3130 3133 3137 3139 3143 3146 3148 3150 3153 3156 3157 3158 3159 3161 3163 3164 3166 3167 3168 3170 3172 3173 3175 3175 3176 3179 3180
3134 3132 3130 3127 3125 3122 3119 3117 3116 3115 3116 3116 3118 3118 3120 3122 3124 3126 3128 3130 3133 3137 3140 3142 3144 3148 3151 3154 3156 3157 3158 3160 3163 3165 3165 3167 3167 3169 3172 3172 3175 3176 3176 3178 3180
3132 3129 3126 3124 3123 3120 3117 3115 3114 3114 3114 3115 3117 3121 3121 3121 3122 3125 3125 3126 3131 3135 3137 3139 3141 3144 3148 3151 3153 3155 3156 3158 3160 3164 3165 3164 3165 3167 3169 3171 3174 3175 3176 3176 3179
3128 3125 3123 3121 3119 3118 3116 3114 3115 3114 3112 3114 3116 3117 3118 3121 3122 3124 3125 3126 3128 3132 3134 3137 3138 3140 3147 3150 3153 3154 3155 3156 3158 3164 3164 3164 3164 3165 3167 3171 3172 3174 3175 3176 3177
3124 3122 3119 3117 3116 3114 3113 3112 3112 3112 3111 3112 3114 3116 3118 3120 3121 3121 3125 3127 3128 3130 3133 3136 3135 3141 3145 3147 3150 3153 3152 3154 3157 3158 3158 3158 3159 3163 3164 3167 3171 3173 3175 3175 3175
3122 3119 3117 3115 3114 3113 3111 3111 3111 3111 3111 3112 3114 3117 3118 3120 3121 3121 3123 3125 3127 3130 3132 3133 3136 3140 3142 3144 3147 3150 3152 3154 3157 3158 3155 3155 3157 3160 3164 3168 3170 3172 3174 3175 3174
3118 3116 3115 3113 3113 3111 3110 3110 3111 3111 3112 3114 3114 3117 3119 3119 3120 3123 3124 3126 3127 3129 3133 3134 3136 3137 3139 3140 3145 3144 3150 3154 3156 3158 3156 3155 3158 3157 3160 3165 3166 3168 3170 3172 3173
3116 3115 3112 3111 3111 3110 3111 3110 3110 3112 3113 3116 3115 3117 3118 3120 3122 3123 3124 3125 3126 3128 3132 3134 3135 3137 3137 3139 3143 3144 3149 3151 3152 3153 3154 3154 3156 3156 3159 3161 3160 3162 3165 3169 3171
3113 3111 3111 3109 3109 3109 3108 3110 3111 3113 3113 3115 3116 3117 3118 3119 3121 3122 3123 3125 3127 3128 3129 3131 3132 3134 3135 3138 3142 3145 3147 3148 3150 3150 3149 3150 3152 3153 3153 3151 3155 3158 3160 3164 3167
3110 3109 3108 3108 3108 3108 3109 3111 3113 3110 3114 3116 3115 3116 3117 3119 3120 3121 3122 3123 3125 3126 3127 3128 3129 3132 3134 3135 3139 3141 3144 3146 3147 3147 3147 3146 3147 3146 3147 3148 3150 3152 3154 3159 3164
3108 3107 3107 3108 3107 3107 3109 3112 3112 3111 3112 3114 3115 3115 3116 3117 3118 3120 3121 3122 3123 3124 3125 3126 3128 3130 3131 3132 3135 3137 3140 3142 3144 3145 3142 3142 3141 3138 3142 3147 3149 3152 3154 3157 3161
3105 3106 3106 3105 3107 3107 3110 3110 3112 3111 3112 3113 3114 3114 3116 3117 3118 3117 3117 3120 3122 3122 3125 3124 3125 3127 3129 3130 3134 3134 3135 3138 3139 3140 3140 3138 3138 3137 3142 3144 3146 3148 3150 3151 3154
3104 3104 3105 3105 3106 3108 3109 3110 3111 3112 3112 3112 3113 3114 3115 3115 3117 3116 3117 3119 3120 3120 3121 3123 3124 3125 3127 3128 3129 3130 3133 3135 3133 3139 3142 3136 3134 3134 3136 3138 3140 3142 3144 3146 3151
3103 3104 3105 3105 3106 3108 3109 3109 3112 3112 3112 3113 3113 3114 3115 3116 3117 3117 3119 3121 3121 3120 3120 3121 3122 3124 3125 3126 3126 3128 3128 3129 3130 3131 3134 3138 3133 3133 3132 3133 3135 3137 3139 3143 3146
3101 3103 3104 3103 3107 3107 3108 3110 3112 3111 3112 3113 3113 3114 3115 3116 3116 3117 3118 3119 3118 3118 3118 3120 3119 3119 3122 3123 3125 3126 3126 3125 3125 3129 3129 3131 3131 3130 3130 3131 3131 3133 3136 3140 3144
3098 3099 3101 3102 3105 3107 3108 3109 3110 3111 3110 3112 3113 3115 3114 3115 3117 3116 3116 3117 3116 3116 3116 3118 3119 3118 3119 3122 3122 3124 3125 3124 3123 3125 3126 3130 3130 3129 3129 3129 3128 3130 3133 3137 3141
3099 3099 3099 3101 3103 3105 3107 3108 3109 3110 3109 3111 3112 3113 3114 3113 3114 3114 3114 3114 3114 3115 3114 3115 3117 3119 3120 3122 3121 3121 3122 3122 3120 3121 3123 3124 3128 3130 3130 3129 3128 3129 3134 3137 3140
3098 3097 3097 3100 3102 3103 3104 3106 3106 3107 3109 3109 3110 3111 3111 3111 3111 3112 3113 3113 3113 3113 3113 3114 3115 3116 3117 3119 3119 3118 3119 3118 3117 3119 3120 3124 3125 3128 3129 3130 3131 3131 3133 3134 3135
3095 3096 3098 3098 3099 3101 3102 3104 3105 3106 3108 3108 3108 3108 3108 3109 3110 3110 3111 3111 3111 3112 3111 3112 3113 3113 3114 3115 3116 3114 3116 3116 3116 3116 3117 3121 3124 3124 3125 3128 3129 3130 3131 3131 3133
3092 3093 3094 3096 3097 3100 3100 3102 3104 3105 3106 3106 3106 3106 3106 3107 3107 3108 3108 3109 3110 3110 3112 3112 3112 3112 3112 3112 3113 3115 3115 3113 3114 3114 3114 3116 3119 3120 3122 3126 3126 3127 3128 3129 3132
Wind_Speed
15 15 15 16 17 18 16 14 14 13 12 11 11 13 15 15 14 10 12 10 11 14 14 11 8 4 4 4 11 14 11 8 13 14 18 18 13 12 4 2 10 7 7 10 14
14 14 14 14 14 15 17 17 15 14 14 12 11 10 12 14 14 12 12 12 13 14 16 14 12 9 9 4 8 10 10 9 7 11 23 18 14 11 10 8 6 7 8 11 9
13 12 13 13 13 14 16 16 17 14 14 13 12 11 10 11 11 14 14 13 13 15 18 20 18 15 12 7 9 13 15 8 12 4 17 16 13 12 13 7 7 7 4 7 11
14 12 11 11 11 12 12 14 15 16 14 12 12 11 9 9 7 13 15 14 14 15 18 22 21 17 12 10 12 12 7 1 2 2 4 14 11 13 14 4 4 3 0 3 9
15 16 15 13 12 11 11 12 13 14 15 13 10 11 8 9 11 11 15 17 17 17 18 21 22 18 14 9 7 13 7 8 1 6 4 10 14 12 14 4 5 5 4 6 9
14 15 16 15 14 14 12 12 12 13 12 12 9 9 7 10 13 16 14 17 18 19 20 22 23 18 18 15 11 7 8 7 8 11 14 14 21 15 13 13 11 6 5 7 9
16 16 15 16 16 15 14 11 11 10 10 11 7 6 5 12 16 15 19 16 18 20 19 18 21 22 22 20 14 13 11 11 12 10 11 16 22 21 9 10 13 8 8 9 10
16 16 15 15 16 15 14 11 10 8 8 6 4 4 7 9 7 7 12 17 16 20 21 23 22 26 23 23 19 14 10 9 9 9 11 18 23 22 16 15 10 9 11 12 10
16 16 14 14 15 15 13 11 8 6 4 2 4 6 7 5 5 8 10 14 20 20 26 28 27 25 26 21 20 15 11 12 11 6 7 23 20 20 15 13 8 7 12 15 12
17 17 14 13 14 14 12 10 7 4 1 3 6 9 9 10 7 3 7 14 20 23 28 29 28 28 28 24 21 17 17 12 11 3 7 25 24 22 16 17 10 5 7 15 13
17 15 15 12 10 12 11 9 8 4 3 5 9 11 14 9 9 6 4 15 22 27 31 29 29 31 30 28 24 21 15 15 17 8 7 17 30 25 19 19 16 11 6 5 5
17 15 13 11 9 8 9 6 6 3 2 7 13 13 8 5 5 7 8 16 20 21 29 26 30 26 27 28 22 22 21 19 17 9 13 14 31 29 24 18 14 9 7 3 3
16 15 12 10 9 7 7 6 5 3 4 6 10 13 5 4 6 6 8 14 20 19 20 22 18 18 20 28 25 25 24 18 13 9 12 13 21 27 30 21 19 17 12 8 4
16 14 10 10 8 6 6 4 2 4 6 5 8 10 7 8 9 6 6 7 14 20 17 16 17 18 17 23 23 27 26 14 13 17 7 10 9 25 31 29 27 23 21 16 7
17 13 11 8 6 6 4 4 2 3 4 7 9 9 7 9 10 4 3 3 6 10 18 9 11 17 18 24 20 23 15 12 14 17 17 19 7 18 26 32 30 27 27 20 17
16 11 10 6 5 4 4 2 4 1 3 6 7 7 7 9 7 8 5 6 5 8 12 14 14 15 16 20 17 15 15 15 17 15 9 18 20 17 35 33 27 29 27 23 17
14 10 8 5 5 5 4 4 3 2 5 5 6 5 5 4 6 8 9 9 6 12 18 16 18 15 15 18 17 17 15 4 4 3 6 15 19 25 21 28 27 23 24 25 20
12 7 6 4 4 4 6 6 1 5 9 11 10 9 8 2 2 11 15 14 12 7 9 5 13 14 12 17 20 18 17 11 5 4 7 11 11 22 26 22 18 26 27 29 31
9 4 2 2 2 3 6 5 2 4 5 4 3 7 8 5 1 4 15 19 14 12 10 5 6 7 7 13 14 18 15 16 18 3 2 5 12 26 23 23 21 26 28 34 30
5 2 6 2 2 2 5 6 5 4 4 5 5 3 4 3 0 4 9 9 10 6 8 8 9 12 9 8 11 16 10 10 10 5 3 5 7 11 11 20 27 30 31 28 28
2 5 3 3 3 6 9 9 7 3 3 5 3 2 1 2 2 4 5 6 6 5 5 7 8 9 6 1 6 5 8 10 11 5 7 1 6 8 14 16 20 25 25 26 30
2 8 3 6 7 5 9 7 5 4 3 2 2 4 5 3 3 4 5 6 4 3 3 4 5 8 12 13 13 7 4 5 8 6 5 3 6 8 11 14 17 20 20 25 25
6 10 6 6 4 6 3 8 9 4 4 5 3 5 5 7 4 7 7 6 4 6 4 4 4 7 10 9 7 7 8 9 6 11 16 5 1 4 10 4 4 10 24 25 25
7 13 11 7 2 3 5 5 10 9 5 5 7 9 11 8 8 8 8 6 4 5 8 11 9 7 4 2 6 6 5 6 3 5 14 22 18 6 10 8 7 11 9 14 24
8 10 15 11 9 7 5 5 6 6 7 8 9 7 11 12 13 10 5 6 7 7 9 7 7 11 11 10 12 12 12 12 7 4 12 18 19 12 18 20 17 15 12 15 20
10 11 13 9 8 10 6 7 7 8 5 8 10 11 10 8 11 12 10 5 7 6 7 6 7 13 17 14 16 21 14 13 12 9 14 15 18 14 14 28 22 20 19 20 15
11 13 12 11 10 13 10 8 8 9 8 7 8 10 10 10 12 12 12 12 11 10 8 7 9 10 9 13 11 10 5 4 9 9 13 19 19 17 18 26 20 21 21 24 21
Wind_Direction
314 313 309 305 303 302 300 294 285 280 274 267 259 255 257 252 247 226 225 214 199 205 201 206 178 160 146 116 120 104 149 117 154 185 174 182 182 172 150 173 118 120 142 173 171
319 315 311 306 300 300 298 297 292 284 276 271 264 254 250 248 243 227 220 212 195 197 196 194 190 174 152 119 110 105 132 146 179 194 183 200 194 176 160 162 109 150 167 179 170
331 326 320 317 314 305 303 297 295 290 280 273 267 258 247 245 231 229 211 208 196 188 194 193 192 182 181 166 121 124 126 90 100 145 209 187 200 187 176 163 101 56 60 178 163
337 335 331 329 325 317 307 301 296 292 287 273 268 262 251 236 206 221 208 198 198 195 192 195 199 181 183 151 142 158 146 148 152 147 128 179 172 196 187 100 87 106 105 167 166
341 335 333 336 330 322 313 306 302 294 289 286 268 260 248 229 197 194 200 191 193 193 195 197 198 176 178 175 183 185 211 255 208 253 94 200 201 202 212 219 229 192 174 172 172
338 332 328 330 330 325 317 309 304 296 292 284 273 254 249 213 218 197 188 192 186 188 197 196 192 196 183 192 212 237 228 227 250 268 235 201 213 212 216 233 237 234 203 187 181
335 331 324 324 326 326 320 311 306 303 292 285 263 239 224 203 209 212 199 187 180 185 190 187 192 200 194 191 214 219 250 246 227 239 220 184 206 224 224 230 234 245 224 204 189
330 328 321 320 324 322 323 313 313 314 301 282 246 181 202 226 215 208 189 196 188 184 178 174 194 201 206 197 203 219 239 229 226 177 186 189 205 214 223 222 221 244 228 213 212
324 327 323 320 323 321 323 308 316 318 305 249 197 155 147 162 169 194 202 184 183 184 176 181 198 204 204 199 199 213 214 216 168 205 236 207 222 220 210 207 214 257 244 213 210
322 324 320 320 322 324 325 308 314 310 287 188 164 151 153 148 142 203 216 180 175 183 185 190 202 204 206 203 206 215 225 221 218 62 276 219 231 240 213 213 211 254 257 220 219
322 322 318 314 317 325 324 317 323 304 246 179 167 164 155 166 160 149 176 184 173 184 188 197 208 209 207 209 207 212 222 236 223 224 284 249 235 235 221 209 207 222 236 221 255
321 321 315 304 305 318 312 288 295 320 190 176 170 170 150 127 159 190 196 188 184 187 189 200 216 213 211 213 219 216 232 238 234 276 298 288 235 234 230 219 211 210 250 217 216
321 319 314 299 293 306 303 277 300 334 124 153 171 179 206 169 168 147 175 187 198 194 195 205 216 209 218 214 227 225 232 246 255 317 303 249 200 207 211 212 219 223 244 247 288
319 316 312 294 279 294 283 259 266 89 94 126 150 166 149 118 120 123 125 132 202 214 202 221 210 204 215 217 221 236 229 248 256 290 246 174 178 208 210 210 221 225 228 234 213
316 318 311 291 276 268 279 220 157 140 73 108 131 128 143 123 134 146 140 183 183 189 200 208 209 220 222 214 213 238 252 253 278 288 260 238 209 212 230 224 231 231 229 236 233
313 316 306 290 255 253 223 194 179 163 88 140 152 150 135 156 143 156 166 189 171 230 242 244 241 241 242 219 236 248 261 276 276 260 225 231 211 222 221 235 240 236 244 240 237
313 313 305 280 254 252 216 167 176 53 130 110 196 206 169 138 187 194 194 204 228 229 239 247 245 254 251 245 231 237 254 268 229 198 211 235 221 223 238 248 248 247 252 246 232
314 301 295 283 271 241 195 157 188 80 110 93 135 121 114 161 180 205 218 235 247 245 243 253 243 240 234 246 243 239 240 217 201 174 224 228 210 232 232 260 259 250 251 251 239
309 294 247 276 281 230 168 192 121 71 45 49 115 108 95 89 149 268 207 227 247 250 232 207 236 225 234 241 233 238 244 241 232 179 290 221 227 251 250 250 251 249 246 239 246
306 269 165 117 223 191 172 150 115 77 42 4 40 25 29 64 304 125 167 162 171 197 224 232 254 257 261 248 214 233 243 212 205 141 204 250 238 234 247 249 241 241 247 249 253
329 162 143 87 120 126 118 122 120 87 23 2 0 210 9 74 90 87 119 150 160 176 173 210 235 253 254 130 2 221 214 215 208 179 158 187 237 224 254 249 249 244 254 238 245
150 159 168 120 96 110 104 124 157 126 74 27 281 282 247 219 144 127 105 116 89 190 217 278 290 293 278 285 305 314 57 194 212 181 164 171 266 273 290 262 262 237 235 220 228
178 167 150 146 122 93 124 172 188 192 192 169 200 243 257 241 196 172 161 136 180 204 202 233 291 315 283 272 201 175 23 35 211 223 219 193 221 271 280 279 340 256 217 218 223
184 191 186 185 193 177 174 156 199 216 231 229 277 279 254 245 229 206 183 188 212 253 245 237 233 260 239 308 286 303 332 10 76 216 225 231 242 239 212 193 193 173 202 226 238
208 188 185 193 214 232 226 199 234 195 228 263 288 264 272 243 244 233 236 204 214 236 260 252 230 243 251 248 261 280 300 317 333 251 225 233 238 246 228 211 198 200 228 221 228
213 197 202 183 204 230 210 199 232 239 213 261 276 279 260 251 253 248 244 237 234 236 257 258 239 248 260 265 252 264 306 317 296 250 217 208 226 243 222 204 197 207 216 234 240
221 216 217 208 193 231 221 211 224 247 267 286 283 270 272 272 269 267 272 270 255 256 250 230 230 260 277 272 268 273 271 297 278 251 199 193 213 230 209 206 210 216 219 229 232